Regional Weather Roundup
Issued by NWS Sterling, VA

Home | Current Version | Previous Version | Text Only | Print | Product List | Glossary Off
Versions: 1 2 3 4 5 6 7 8 9 10 11 12 13 14 15 16 17 18 19 20 21 22 23 24 25 26 27 28 29 30 31 32 33 34 35 36 37 38 39 40 41 42 43 44 45 46 47 48 49 50

183
ASUS41 KLWX 060710
RWRLWX

REGIONAL WEATHER ROUNDUP
NATIONAL WEATHER SERVICE BALTIMORE MD/WASHINGTON DC
300 AM EDT FRI MAY 06 2016

Note: "FAIR" indicates few or no clouds below 12,000 feet
with no significant weather and/or obstructions to visibility.
 TC=TEMPERATURE CELSIUS

 * =Non NWS site. Station does not report precipitation (e.g. rain,
    snow, etc.), thunder, or fog.

DCZ001-MDZ009-015-VAZ040>042-051-053>054-060800-
WASHINGTON METRO

CITY           SKY/WX    TMP DP  RH WIND       PRES   REMARKS
WASHINGTON NAT CLOUDY    54  49  83 N12       29.66F
DULLES         DRIZZLE   52  49  89 N9        29.67F
ANDREWS AFB    CLOUDY    52  50  92 N9        29.64S
FT BELVOIR     FAIR      53  50  91 NW7       29.65F
QUANTICO       LGT RAIN  53  50  89 N14G24    29.66F
COLLEGE PARK*  CLOUDY    52  48  87 CALM      29.65F
LEESBURG*      CLOUDY    52  52 100 N3        29.68F
MANASSAS*      CLOUDY    52  52 100 N6        29.67F
GAITHERSBURG*  CLOUDY    50  46  87 NE3       29.70F

$$

MDZ006>007-011-014-060800-
BALTIMORE METRO

CITY           SKY/WX    TMP DP  RH WIND       PRES   REMARKS
BWI AIRPORT    CLOUDY    53  48  83 VRB7      29.65S
MD SCIENCE CTR   N/A     55  48  77 MISG      29.66S
MARTIN STATE   CLOUDY    54  52  94 CALM      29.67F
ANNAPOLIS      CLOUDY    54  51  90 N5        29.63F
FORT MEADE*    CLOUDY    52  48  87 CALM      29.68F

$$

MDZ012-015-019>023-060800-
MARYLAND EASTERN SHORE

CITY           SKY/WX    TMP DP  RH WIND       PRES   REMARKS
OCEAN CITY     CLOUDY    49  46  90 NE13G24   29.62S
SALISBURY      CLOUDY    49  48  97 NE9       29.61F
CAMBRIDGE*       N/A     50  46  87 NE9       29.61F
EASTON*        CLOUDY   N/A N/A N/A NE5       29.67F

$$

MDZ017>025-060800-
SOUTHERN MARYLAND

CITY           SKY/WX    TMP DP  RH WIND       PRES   REMARKS
PATUXENT RIVER CLOUDY    52  48  86 NE7       29.62F
ST INIGOES     CLOUDY    53  49  86 N6        29.61F
LEONARDTOWN*   CLOUDY    52  50  93 CALM      29.64F

$$

MDZ003>005-060800-
NORTH CENTRAL MARYLAND

CITY           SKY/WX    TMP DP  RH WIND       PRES   REMARKS
FREDERICK*     CLOUDY    50  50 100 N3        29.71S
HAGERSTOWN APT CLOUDY    51  48  89 NW5       29.68F
WESTMINSTER*   CLOUDY    52  48  87 N5        29.67F

$$

MDZ501>502-060800-
WESTERN MARYLAND

CITY           SKY/WX    TMP DP  RH WIND       PRES   REMARKS
OAKLAND*       CLOUDY    41  41 100 N5        29.73F
CUMBERLAND*    CLOUDY    54  46  76 N5        29.75S

$$

VAZ025>031-060800-
SHENANDOAH VALLEY

CITY           SKY/WX    TMP DP  RH WIND       PRES   REMARKS
WINCHESTER*    RAIN      50  50 100 N5        29.69F
FRONT ROYAL*   CLOUDY    50  50 100 CALM      29.68F
LURAY*         LGT RAIN  50  50 100 CALM      29.69S
NEW MARKET*    CLOUDY    49  49  97 NE3       29.69S
STAUNTON*      LGT RAIN  52  51  97 N3        29.70F
WAYNESBORO*    CLOUDY    48  46  93 N5        29.68F

$$

WVZ021-048>050-054>055-060800-
EASTERN WEST VIRGINIA PANHANDLE

CITY           SKY/WX    TMP DP  RH WIND       PRES   REMARKS
MARTINSBURG      N/A     51  48  89 N5        29.68F
PETERSBURG*    DRIZZLE   53  50  92 CALM      29.73R

$$

VAZ036>039-050-060800-
CENTRAL FOOTHILLS

CITY           SKY/WX    TMP DP  RH WIND       PRES   REMARKS
CHARLOTTESVILL CLOUDY    52  48  86 N5        29.67S
CULPEPER*      DRIZZLE   52  51  98 N6        29.68S
ORANGE*        RAIN      52  52 100 SW9       29.68F
GORDONSVILLE*  CLOUDY    51  50  97 N7        29.66F FOG
WARRENTON*     DRIZZLE   52  47  82 N6        29.67S

$$

VAZ055>057-060800-
NORTH AND CENTRAL PIEDMONT

CITY           SKY/WX    TMP DP  RH WIND       PRES   REMARKS
FREDERICKSBRG* DRIZZLE   52  52 100 NW6       29.64F
STAFFORD*      DRIZZLE   51  49  93 N7        29.69F

$$

NCZ024-NYZ072-PAZ021-071-VAZ022-071-060800-
OTHER REGIONAL OBSERVATIONS

CITY           SKY/WX    TMP DP  RH WIND       PRES   REMARKS
NEW YORK CITY  LGT RAIN  50  43  77 E7        29.71R
PHILADELPHIA   CLOUDY    52  47  83 E10       29.66F
PITTSBURGH     CLOUDY    51  42  71 N12       29.78S
ROANOKE        CLOUDY    51  47  86 CALM      29.72S
RICHMOND       LGT RAIN  51  50  96 N3        29.64F
RALEIGH        LGT RAIN  50  49  96 VRB3      29.66F FOG

$$

ANZ530>537-060800-
MARINE OBSERVATIONS

STATION/POSITION TIME  TEMP    WIND        PRES
                       AIR SEA DIR/SP/G
                 (UTC) (F)     (DEG/KT/KT) (MB)
THOMAS PT LIGHT  0700   54 57   50/  7/  8 1004.9F
BALT KEY BRIDGE  0600   55     350/  6/  7 1004.1F
COVE POINT       0600   53      80/  6/  9 1004.2F
LEWISETTA        0600   54 60   40/  7/ 10 1003.1F
SOLOMONS ISLAND  0600   53 60   20/  4/  5   N/A
PINEY POINT      0600           10/  8/  9   N/A

$$





USA.gov is the U.S. government's official web portal to all federal, state and local government web resources and services.